Weather History for CYHK - April, 2013

Change the Weather History Date:

Thursday, April 25, 2013

  Actual Average Record
Temperature  
Mean Temperature -14 °F -  
Max Temperature -4 °F 8 °F 24 °F (2015)
Min Temperature -23 °F -1 °F -22 °F (2011)
Degree Days  
Heating Degree Days 78    
Moisture  
Dew Point -17 °F    
Average Humidity 78    
Maximum Humidity 84    
Minimum Humidity 62    
Precipitation  
Precipitation 0.00 in - - ()
Sea Level Pressure  
Sea Level Pressure 29.71 in    
Wind  
Wind Speed 6 mph ()    
Max Wind Speed 10 mph    
Max Gust Speed 18 mph    
Visibility 11.2 miles    
Events      
Averages and records for this station are not official NWS values.
T = Trace of Precipitation, MM = Missing Value Source: Averaged Metar Reports

Daily Weather History Graph

Daily Weather History Graph

Search for Another Location

Airport or City:

Trip Planner

Search our weather history database for the weather conditions in past years. The results will help you decide how hot, cold, wet, or windy it might be!

Date:

Astronomy

Apr. 25, 2013 Rise Set
Actual Time 4:40 AM CDT 10:05 PM CDT
Civil Twilight 3:05 AM CDT 11:44 PM CDT
Nautical Twilight Sun does not rise Sun does not rise
Astronomical Twilight Sun does not rise Sun does not rise
Moon 10:42 PM CDT (4/25) 4:31 AM CDT (4/25)
Length of Visible Light 20h 38m
Length of Day
17h 24m
Full, 100% of the Moon is Illuminated
Apr 25
Full
Apr 25
Full
May 2
Last Quarter
May 9
New
May 17
First Quarter

Hourly Weather History & Observations

Time (CDT) Temp. Windchill Dew Point Humidity Pressure Visibility Wind Dir Wind Speed Gust Speed Precip Events Conditions
12:00 AM -14.8 °F -33.5 °F -20.2 °F 77% 29.70 in 9.0 mi ESE 9.2 mph - N/A   Clear
1:00 AM -16 °F - -21 °F 65% 29.68 in - ESE 8.1 mph - -  
1:00 AM -16.6 °F -34.4 °F -20.2 °F 84% 29.69 in 9.0 mi ESE 8.1 mph - N/A   Clear
2:00 AM -16.6 °F -34.4 °F -22.0 °F 76% 29.69 in 9.0 mi ESE 8.1 mph - N/A   Clear
3:00 AM -18.4 °F -36.6 °F -23.8 °F 76% 29.69 in 9.0 mi ESE 8.1 mph - N/A   Clear
4:00 AM -20.2 °F -37.3 °F -25.6 °F 76% 29.69 in 9.0 mi East 6.9 mph - N/A   Clear
6:00 AM -22.0 °F -33.0 °F -27.4 °F 76% 29.70 in 9.0 mi ENE 3.5 mph - N/A   Clear
7:00 AM -23 °F - -28 °F 62% 29.68 in - NE 8.1 mph - -  
7:00 AM -22.0 °F -42.3 °F -27.4 °F 76% 29.69 in 9.0 mi NNE 9.2 mph - N/A   Clear
8:00 AM -20.2 °F -41.3 °F -25.6 °F 76% 29.69 in 9.0 mi NNE 10.4 mph - N/A   Clear
9:00 AM -18.4 °F -35.1 °F -22.0 °F 84% 29.70 in 12.0 mi NNE 6.9 mph - N/A   Ice Crystals
10:00 AM -16.6 °F -29.3 °F -20.2 °F 84% 29.70 in 15.0 mi NE 4.6 mph - N/A   Ice Crystals
11:00 AM -13.0 °F -27.0 °F -18.4 °F 77% 29.69 in 15.0 mi NE 5.8 mph - N/A   Ice Crystals
12:00 PM -11.2 °F -24.8 °F -16.6 °F 77% 29.70 in 15.0 mi NE 5.8 mph - N/A   Ice Crystals
1:00 PM -9 °F - -13 °F 74% 29.68 in - East 9.2 mph - -  
2:00 PM -7.6 °F -20.6 °F -13.0 °F 77% 29.71 in 15.0 mi ENE 5.8 mph - N/A   Ice Crystals
3:00 PM -5.8 °F -16.7 °F -11.2 °F 77% 29.72 in 15.0 mi ENE 4.6 mph - N/A   Ice Crystals
4:00 PM -5.8 °F -18.4 °F -9.4 °F 84% 29.73 in 15.0 mi ENE 5.8 mph 18.4 mph N/A   Ice Crystals
5:00 PM -5.8 °F -18.4 °F -9.4 °F 84% 29.73 in 15.0 mi East 5.8 mph - N/A   Ice Crystals
6:00 PM -4.0 °F -12.4 °F -9.4 °F 78% 29.73 in 15.0 mi East 3.5 mph - N/A   Ice Crystals
7:00 PM -5 °F - -9 °F 74% 29.72 in - East 5.8 mph - -  
7:00 PM -5.8 °F - -9.4 °F 84% 29.74 in 15.0 mi NE 2.3 mph - N/A   Ice Crystals
8:00 PM -7.6 °F - -11.2 °F 84% 29.74 in 9.0 mi ENE 2.3 mph - N/A   Clear
9:00 PM -7.6 °F -16.5 °F -11.2 °F 84% 29.75 in 9.0 mi NE 3.5 mph - N/A   Clear
10:00 PM -9.4 °F - -14.8 °F 77% 29.75 in 9.0 mi Calm Calm - N/A   Clear
11:00 PM -11.2 °F -20.6 °F -14.8 °F 84% 29.74 in 9.0 mi East 3.5 mph - N/A   Partly Cloudy
11:31 PM -9.4 °F -25.6 °F -13.0 °F 84% 29.74 in 5.0 mi East 8.1 mph - N/A   Haze
11:41 PM -11.2 °F -26.4 °F -14.8 °F 84% 29.74 in 9.0 mi East 6.9 mph - N/A   Clear